,,,PA_Meas_PMT16A,,PR_Meas_QMR101_102,,RH_Meas_QMH101,,SR_Meas_QMS101,,TA_Meas_QMH101,,GenWind,,GenWind,
date,time,status,PA,status,PR,status,RH,status,SR,status,TA,status,DirAvg,status,SpdAvg,
2012-02-15, 00:00:05,VALID,999.962,VALID,0,VALID,91.9369,VALID,0,VALID,24.5599,VALID,141,VALID,0,
2012-02-15, 00:01:05,VALID,999.985,VALID,0.5,VALID,92.0819,VALID,0,VALID,24.5385,VALID,141,VALID,0,
2012-02-15, 00:02:05,VALID,999.994,VALID,0,VALID,92.1429,VALID,0,VALID,24.519,VALID,141,VALID,0,
2012-02-15, 00:03:05,VALID,999.976,VALID,0,VALID,92.1887,VALID,0,VALID,24.5404,VALID,141,VALID,0,
2012-02-15, 00:04:05,VALID,1000.01,VALID,0,VALID,92.1658,VALID,0,VALID,24.5404,VALID,141,VALID,0,
2012-02-15, 00:05:05,VALID,1000.03,VALID,0,VALID,92.0819,VALID,0,VALID,24.5209,VALID,141,VALID,0,
2012-02-15, 00:06:05,VALID,1000.04,VALID,0,VALID,92.2116,VALID,0,VALID,24.4995,VALID,141,VALID,0,
2012-02-15, 00:07:05,VALID,1000.04,VALID,0,VALID,92.3108,VALID,0,VALID,24.5209,VALID,2,VALID,0,
2012-02-15, 00:08:05,VALID,999.996,VALID,0,VALID,92.3718,VALID,0,VALID,24.5209,VALID,2,VALID,0,
2012-02-15, 00:09:05,VALID,999.97,VALID,0,VALID,92.4328,VALID,0,VALID,24.48,VALID,2,VALID,0,
2012-02-15, 00:10:05,VALID,999.95,VALID,0,VALID,92.5091,VALID,0,VALID,24.4818,VALID,2,VALID,0,
2012-02-15, 00:11:05,VALID,999.929,VALID,0,VALID,92.5473,VALID,0,VALID,24.4604,VALID,2,VALID,0,
2012-02-15, 00:12:05,VALID,999.896,VALID,0,VALID,92.5778,VALID,0,VALID,24.4623,VALID,2,VALID,0,
2012-02-15, 00:13:05,VALID,999.865,VALID,0,VALID,92.6236,VALID,0,VALID,24.4409,VALID,2,VALID,0,
2012-02-15, 00:14:05,VALID,999.828,VALID,0,VALID,92.6388,VALID,0,VALID,24.4214,VALID,2,VALID,0,
2012-02-15, 00:15:05,VALID,999.821,VALID,0,VALID,92.6846,VALID,0,VALID,24.4428,VALID,2,VALID,0,
2012-02-15, 00:16:05,VALID,999.786,VALID,0,VALID,92.7151,VALID,0,VALID,24.4428,VALID,2,VALID,0,
2012-02-15, 00:17:05,VALID,999.752,VALID,0,VALID,92.7228,VALID,0,VALID,24.4214,VALID,2,VALID,0,
2012-02-15, 00:18:05,VALID,999.728,VALID,0,VALID,92.8143,VALID,0,VALID,24.4428,VALID,2,VALID,0,
2012-02-15, 00:19:05,VALID,999.729,VALID,0,VALID,92.9211,VALID,0,VALID,24.4409,VALID,43,VALID,0,
2012-02-15, 00:20:05,VALID,999.727,VALID,0,VALID,93.0814,VALID,0,VALID,24.4818,VALID,64,VALID,0,
2012-02-15, 00:21:05,VALID,999.756,VALID,0,VALID,93.2111,VALID,0,VALID,24.4995,VALID,64,VALID,0,
2012-02-15, 00:22:05,VALID,999.757,VALID,0,VALID,93.3026,VALID,0,VALID,24.5404,VALID,64,VALID,0,
2012-02-15, 00:23:05,VALID,999.805,VALID,0,VALID,93.3255,VALID,0,VALID,24.5599,VALID,64,VALID,0,
2012-02-15, 00:24:05,VALID,999.801,VALID,0,VALID,93.3713,VALID,0,VALID,24.5599,VALID,63,VALID,0,
2012-02-15, 00:25:05,VALID,999.831,VALID,0,VALID,93.3866,VALID,0,VALID,24.558,VALID,54,VALID,0,
2012-02-15, 00:26:05,VALID,999.827,VALID,0,VALID,93.3942,VALID,0,VALID,24.5989,VALID,54,VALID,0,
2012-02-15, 00:27:05,VALID,999.824,VALID,0,VALID,93.3866,VALID,0,VALID,24.5989,VALID,54,VALID,0,
2012-02-15, 00:28:05,VALID,999.766,VALID,0,VALID,93.4171,VALID,0,VALID,24.5794,VALID,54,VALID,0,
2012-02-15, 00:29:05,VALID,999.8,VALID,0,VALID,93.3789,VALID,0,VALID,24.5989,VALID,67,VALID,0,
2012-02-15, 00:30:05,VALID,999.807,VALID,0,VALID,93.3408,VALID,0,VALID,24.558,VALID,81,VALID,0,
2012-02-15, 00:31:05,VALID,999.796,VALID,0,VALID,93.3026,VALID,0,VALID,24.5794,VALID,81,VALID,0,
2012-02-15, 00:32:05,VALID,999.809,VALID,0,VALID,93.3103,VALID,0,VALID,24.5599,VALID,81,VALID,0,
2012-02-15, 00:33:05,VALID,999.761,VALID,0,VALID,93.2874,VALID,0,VALID,24.5385,VALID,81,VALID,0,
2012-02-15, 00:34:05,VALID,999.733,VALID,0,VALID,93.3179,VALID,0,VALID,24.5404,VALID,122,VALID,0,
2012-02-15, 00:35:04,VALID,999.703,VALID,0,VALID,93.3255,VALID,0,VALID,24.5385,VALID,134,VALID,0,
2012-02-15, 00:36:04,VALID,999.655,VALID,0,VALID,93.356,VALID,0,VALID,24.5599,VALID,153,VALID,0,
2012-02-15, 00:37:04,VALID,999.62,VALID,0,VALID,93.3484,VALID,0,VALID,24.5404,VALID,153,VALID,0,
2012-02-15, 00:38:04,VALID,999.639,VALID,0,VALID,93.3408,VALID,0,VALID,24.5404,VALID,153,VALID,0,
2012-02-15, 00:39:04,VALID,999.602,VALID,0,VALID,93.3103,VALID,0,VALID,24.5404,VALID,153,VALID,0,
2012-02-15, 00:40:04,VALID,999.612,VALID,0.5,VALID,93.3103,VALID,0,VALID,24.5404,VALID,153,VALID,0,
2012-02-15, 00:41:04,VALID,999.62,VALID,0,VALID,93.3179,VALID,0,VALID,24.519,VALID,153,VALID,0,
2012-02-15, 00:42:04,VALID,999.634,VALID,0,VALID,93.3103,VALID,0,VALID,24.5385,VALID,161,VALID,0,
2012-02-15, 00:43:04,VALID,999.698,VALID,0,VALID,93.2874,VALID,0,VALID,24.5385,VALID,161,VALID,0,
2012-02-15, 00:44:04,VALID,999.751,VALID,0,VALID,93.2874,VALID,0,VALID,24.5599,VALID,161,VALID,0,
2012-02-15, 00:45:04,VALID,999.749,VALID,0,VALID,93.3179,VALID,0,VALID,24.5385,VALID,161,VALID,0,
2012-02-15, 00:46:04,VALID,999.785,VALID,0,VALID,93.3179,VALID,0,VALID,24.5599,VALID,161,VALID,0,
2012-02-15, 00:47:04,VALID,999.775,VALID,0,VALID,93.3179,VALID,0,VALID,24.5599,VALID,161,VALID,0,
2012-02-15, 00:48:04,VALID,999.776,VALID,0,VALID,93.295,VALID,0,VALID,24.558,VALID,161,VALID,0,
2012-02-15, 00:49:04,VALID,999.744,VALID,0,VALID,93.2721,VALID,0,VALID,24.5599,VALID,161,VALID,0,
2012-02-15, 00:50:04,VALID,999.728,VALID,0,VALID,93.2721,VALID,0,VALID,24.5794,VALID,161,VALID,0,
2012-02-15, 00:51:04,VALID,999.681,VALID,0,VALID,93.2416,VALID,0,VALID,24.5599,VALID,161,VALID,0,
2012-02-15, 00:52:04,VALID,999.647,VALID,0,VALID,93.2111,VALID,0,VALID,24.519,VALID,161,VALID,0,
2012-02-15, 00:53:04,VALID,999.65,VALID,0,VALID,93.1882,VALID,0,VALID,24.519,VALID,161,VALID,0,
2012-02-15, 00:54:04,VALID,999.614,VALID,0,VALID,93.1653,VALID,0,VALID,24.5404,VALID,161,VALID,0,
2012-02-15, 00:55:04,VALID,999.621,VALID,0,VALID,93.1424,VALID,0,VALID,24.519,VALID,161,VALID,0,
2012-02-15, 00:56:04,VALID,999.604,VALID,0,VALID,93.1729,VALID,0,VALID,24.519,VALID,161,VALID,0,
2012-02-15, 00:57:04,VALID,999.574,VALID,0,VALID,93.2263,VALID,0,VALID,24.5404,VALID,161,VALID,0,
2012-02-15, 00:58:04,VALID,999.6,VALID,0,VALID,93.234,VALID,0,VALID,24.5385,VALID,161,VALID,0,
2012-02-15, 00:59:04,VALID,999.604,VALID,0,VALID,93.2492,VALID,0,VALID,24.5385,VALID,161,VALID,0,
2012-02-15, 01:00:04,VALID,999.599,VALID,0,VALID,93.3637,VALID,0,VALID,24.5775,VALID,297,VALID,0,
2012-02-15, 01:01:04,VALID,999.598,VALID,0.5,VALID,93.44,VALID,0,VALID,24.5971,VALID,293,VALID,0,
2012-02-15, 01:02:04,VALID,999.569,VALID,0,VALID,93.5239,VALID,0,VALID,24.5989,VALID,292,VALID,1.03516,
2012-02-15, 01:03:04,VALID,999.583,VALID,0,VALID,93.5163,VALID,0,VALID,24.6184,VALID,283,VALID,0.615234,
2012-02-15, 01:04:04,VALID,999.559,VALID,0.5,VALID,93.5163,VALID,0,VALID,24.5989,VALID,284,VALID,0.482422,
2012-02-15, 01:05:04,VALID,999.526,VALID,0,VALID,93.562,VALID,0,VALID,24.5989,VALID,284,VALID,0.455859,
2012-02-15, 01:06:04,VALID,999.578,VALID,0.5,VALID,93.6002,VALID,0,VALID,24.5775,VALID,298,VALID,0.674219,
2012-02-15, 01:07:04,VALID,999.598,VALID,0,VALID,93.6154,VALID,0,VALID,24.5775,VALID,303,VALID,0.805469,
2012-02-15, 01:08:04,VALID,999.572,VALID,0.5,VALID,93.6383,VALID,0,VALID,24.558,VALID,298,VALID,1.11523,
2012-02-15, 01:09:04,VALID,999.535,VALID,0.5,VALID,93.6536,VALID,0,VALID,24.5385,VALID,287,VALID,0.299219,
2012-02-15, 01:10:04,VALID,999.534,VALID,0.5,VALID,93.6917,VALID,0,VALID,24.519,VALID,287,VALID,0.288672,
2012-02-15, 01:11:04,VALID,999.495,VALID,0,VALID,93.7223,VALID,0,VALID,24.519,VALID,18,VALID,0.544922,
2012-02-15, 01:12:04,VALID,999.497,VALID,0,VALID,93.7604,VALID,0,VALID,24.519,VALID,26,VALID,1.09141,
2012-02-15, 01:13:04,VALID,999.507,VALID,0.5,VALID,93.768,VALID,0,VALID,24.4995,VALID,34,VALID,0.757813,
2012-02-15, 01:14:04,VALID,999.508,VALID,0,VALID,93.7985,VALID,0,VALID,24.5013,VALID,34,VALID,0.470313,
2012-02-15, 01:15:04,VALID,999.51,VALID,0,VALID,93.8291,VALID,0,VALID,24.4604,VALID,345,VALID,0.667188,
2012-02-15, 01:16:04,VALID,999.506,VALID,0.5,VALID,93.8367,VALID,0,VALID,24.4604,VALID,341,VALID,0.759375,
2012-02-15, 01:17:04,VALID,999.498,VALID,0.5,VALID,93.8825,VALID,0,VALID,24.4604,VALID,302,VALID,0.4875,
2012-02-15, 01:18:04,VALID,999.453,VALID,0.5,VALID,93.9054,VALID,0,VALID,24.4604,VALID,240,VALID,0.125391,
2012-02-15, 01:19:04,VALID,999.457,VALID,0.5,VALID,93.9511,VALID,0,VALID,24.4604,VALID,207,VALID,0.633984,
2012-02-15, 01:20:04,VALID,999.451,VALID,0.5,VALID,93.9817,VALID,0,VALID,24.4604,VALID,207,VALID,0.126953,
2012-02-15, 01:21:04,VALID,999.448,VALID,0.5,VALID,94.0045,VALID,0,VALID,24.4409,VALID,152,VALID,0.351563,
2012-02-15, 01:22:04,VALID,999.396,VALID,0.5,VALID,94.0427,VALID,0,VALID,24.4409,VALID,43,VALID,1.61523,
2012-02-15, 01:23:04,VALID,999.363,VALID,0.5,VALID,94.0351,VALID,0,VALID,24.4214,VALID,68,VALID,1.58867,
2012-02-15, 01:24:04,VALID,999.34,VALID,0,VALID,94.0732,VALID,0,VALID,24.4233,VALID,105,VALID,1.81953,
2012-02-15, 01:25:04,VALID,999.33,VALID,0,VALID,94.0885,VALID,0,VALID,24.3824,VALID,92,VALID,1.73672,
2012-02-15, 01:26:04,VALID,999.343,VALID,0,VALID,94.1114,VALID,0,VALID,24.4233,VALID,91,VALID,1.72187,
2012-02-15, 01:27:04,VALID,999.332,VALID,0,VALID,94.1419,VALID,0,VALID,24.3824,VALID,70,VALID,1.48086,
2012-02-15, 01:28:04,VALID,999.329,VALID,0.5,VALID,94.1648,VALID,0,VALID,24.3824,VALID,63,VALID,1.41523,
2012-02-15, 01:29:04,VALID,999.3,VALID,0,VALID,94.1953,VALID,0,VALID,24.3629,VALID,65,VALID,1.12891,
2012-02-15, 01:30:04,VALID,999.272,VALID,0,VALID,94.2029,VALID,0,VALID,24.3433,VALID,69,VALID,1.35391,
2012-02-15, 01:31:04,VALID,999.275,VALID,0,VALID,94.2105,VALID,0,VALID,24.3433,VALID,74,VALID,1.4875,
2012-02-15, 01:32:04,VALID,999.248,VALID,0.5,VALID,94.2411,VALID,0,VALID,24.3433,VALID,75,VALID,1.41367,
2012-02-15, 01:33:04,VALID,999.246,VALID,0,VALID,94.2792,VALID,0,VALID,24.3452,VALID,75,VALID,1.84648,
2012-02-15, 01:34:04,VALID,999.245,VALID,0,VALID,94.3097,VALID,0,VALID,24.3433,VALID,77,VALID,1.71406,
2012-02-15, 01:35:04,VALID,999.248,VALID,0.5,VALID,94.3326,VALID,0,VALID,24.3238,VALID,91,VALID,1.31406,
2012-02-15, 01:36:04,VALID,999.22,VALID,0,VALID,94.3479,VALID,0,VALID,24.3238,VALID,85,VALID,1.32773,
2012-02-15, 01:37:04,VALID,999.198,VALID,0,VALID,94.3631,VALID,0,VALID,24.3043,VALID,88,VALID,1.71836,
2012-02-15, 01:38:04,VALID,999.182,VALID,0,VALID,94.3784,VALID,0,VALID,24.2848,VALID,99,VALID,1.43008,
2012-02-15, 01:39:04,VALID,999.138,VALID,0,VALID,94.4013,VALID,0,VALID,24.2848,VALID,105,VALID,1.58477,
2012-02-15, 01:40:04,VALID,999.1,VALID,0,VALID,94.4318,VALID,0,VALID,24.3062,VALID,101,VALID,1.37266,
2012-02-15, 01:41:04,VALID,999.058,VALID,0.5,VALID,94.4318,VALID,0,VALID,24.2848,VALID,98,VALID,1.04297,
2012-02-15, 01:42:04,VALID,999.051,VALID,0,VALID,94.4471,VALID,0,VALID,24.2653,VALID,103,VALID,1.03086,
2012-02-15, 01:43:04,VALID,998.977,VALID,0.5,VALID,94.4471,VALID,0,VALID,24.2653,VALID,116,VALID,0.894141,
2012-02-15, 01:44:04,VALID,998.959,VALID,0,VALID,94.4928,VALID,0,VALID,24.2458,VALID,120,VALID,0.710547,
2012-02-15, 01:45:04,VALID,998.954,VALID,0,VALID,94.4928,VALID,0,VALID,24.2458,VALID,130,VALID,0.4875,
2012-02-15, 01:46:04,VALID,998.929,VALID,0,VALID,94.5005,VALID,0,VALID,24.2458,VALID,139,VALID,0.828906,
2012-02-15, 01:47:04,VALID,998.917,VALID,0,VALID,94.5157,VALID,0,VALID,24.2458,VALID,145,VALID,0.75625,
2012-02-15, 01:48:04,VALID,998.909,VALID,0,VALID,94.531,VALID,0,VALID,24.2653,VALID,160,VALID,0.367969,
2012-02-15, 01:49:04,VALID,998.887,VALID,0.5,VALID,94.5386,VALID,0,VALID,24.2866,VALID,162,VALID,0.148047,
2012-02-15, 01:50:04,VALID,998.895,VALID,0,VALID,94.5691,VALID,0,VALID,24.2653,VALID,162,VALID,0,
2012-02-15, 01:51:04,VALID,998.867,VALID,0,VALID,94.592,VALID,0,VALID,24.2653,VALID,162,VALID,0,
2012-02-15, 01:52:04,VALID,998.884,VALID,0,VALID,94.5997,VALID,0,VALID,24.2848,VALID,162,VALID,0,
2012-02-15, 01:53:04,VALID,998.854,VALID,0,VALID,94.5997,VALID,0,VALID,24.2848,VALID,162,VALID,0,
2012-02-15, 01:54:04,VALID,998.821,VALID,0,VALID,94.5997,VALID,0,VALID,24.2848,VALID,162,VALID,0,
2012-02-15, 01:55:04,VALID,998.849,VALID,0,VALID,94.6149,VALID,0,VALID,24.2653,VALID,162,VALID,0,
2012-02-15, 01:56:04,VALID,998.808,VALID,0,VALID,94.6226,VALID,0,VALID,24.2458,VALID,162,VALID,0.666406,
2012-02-15, 01:57:04,VALID,998.823,VALID,0,VALID,94.6226,VALID,0,VALID,24.2458,VALID,112,VALID,0.723047,
2012-02-15, 01:58:04,VALID,998.815,VALID,0,VALID,94.6302,VALID,0,VALID,24.2458,VALID,349,VALID,0.629687,
2012-02-15, 01:59:04,VALID,998.813,VALID,0,VALID,94.6226,VALID,0,VALID,24.2458,VALID,349,VALID,0.874219,
2012-02-15, 02:00:04,VALID,998.84,VALID,0.5,VALID,94.6302,VALID,0,VALID,24.2458,VALID,319,VALID,0.686719,
2012-02-15, 02:01:04,VALID,998.848,VALID,0,VALID,94.6378,VALID,0,VALID,24.2263,VALID,288,VALID,1.00391,
2012-02-15, 02:02:04,VALID,998.843,VALID,0,VALID,94.6378,VALID,0,VALID,24.2458,VALID,279,VALID,0.679688,
2012-02-15, 02:03:04,VALID,998.798,VALID,0,VALID,94.6607,VALID,0,VALID,24.2263,VALID,305,VALID,0.552734,
2012-02-15, 02:04:04,VALID,998.795,VALID,0,VALID,94.6607,VALID,0,VALID,24.2244,VALID,304,VALID,0.599219,
2012-02-15, 02:05:04,VALID,998.805,VALID,0,VALID,94.6836,VALID,0,VALID,24.2458,VALID,304,VALID,0.342187,
2012-02-15, 02:06:04,VALID,998.796,VALID,0,VALID,94.6836,VALID,0,VALID,24.2653,VALID,304,VALID,0,
2012-02-15, 02:07:04,VALID,998.826,VALID,0,VALID,94.6836,VALID,0,VALID,24.2653,VALID,360,VALID,0,
2012-02-15, 02:08:04,VALID,998.81,VALID,0,VALID,94.6836,VALID,0,VALID,24.2458,VALID,360,VALID,0,
2012-02-15, 02:09:04,VALID,998.809,VALID,0,VALID,94.7217,VALID,0,VALID,24.2458,VALID,4,VALID,0,
2012-02-15, 02:10:04,VALID,998.807,VALID,0,VALID,94.676,VALID,0,VALID,24.2263,VALID,8,VALID,0,
2012-02-15, 02:11:04,VALID,998.832,VALID,0,VALID,94.6912,VALID,0,VALID,24.2067,VALID,7,VALID,0,
2012-02-15, 02:12:04,VALID,998.8,VALID,0,VALID,94.676,VALID,0,VALID,24.1872,VALID,13,VALID,0,
2012-02-15, 02:13:04,VALID,998.814,VALID,0,VALID,94.6988,VALID,0.104696,VALID,24.1677,VALID,13,VALID,0,
2012-02-15, 02:14:04,VALID,998.787,VALID,0,VALID,94.676,VALID,0,VALID,24.1677,VALID,13,VALID,0,
2012-02-15, 02:15:04,VALID,998.797,VALID,0,VALID,94.6836,VALID,0,VALID,24.1677,VALID,18,VALID,0,
2012-02-15, 02:16:04,VALID,998.756,VALID,0,VALID,94.6912,VALID,0,VALID,24.15,VALID,23,VALID,0,
2012-02-15, 02:17:04,VALID,998.747,VALID,0,VALID,94.6912,VALID,0,VALID,24.0897,VALID,28,VALID,0.421484,
2012-02-15, 02:18:04,VALID,998.743,VALID,0,VALID,94.6912,VALID,0,VALID,24.0311,VALID,15,VALID,1.28633,
2012-02-15, 02:19:04,VALID,998.728,VALID,0,VALID,94.676,VALID,0,VALID,24.0311,VALID,20,VALID,1.16758,
2012-02-15, 02:20:04,VALID,998.721,VALID,0,VALID,94.6607,VALID,0,VALID,23.9921,VALID,14,VALID,1.3707,
2012-02-15, 02:21:04,VALID,998.7,VALID,0,VALID,94.676,VALID,0,VALID,23.9726,VALID,14,VALID,1.05117,
2012-02-15, 02:22:04,VALID,998.712,VALID,0.5,VALID,94.6683,VALID,0,VALID,23.9336,VALID,8,VALID,1.32578,
2012-02-15, 02:23:04,VALID,998.68,VALID,0,VALID,94.6683,VALID,0,VALID,23.9354,VALID,9,VALID,1.01289,
2012-02-15, 02:24:04,VALID,998.683,VALID,0,VALID,94.6607,VALID,0,VALID,23.8945,VALID,9,VALID,0.886719,
2012-02-15, 02:25:04,VALID,998.656,VALID,0,VALID,94.6683,VALID,0,VALID,23.875,VALID,9,VALID,0.873828,
2012-02-15, 02:26:04,VALID,998.664,VALID,0,VALID,94.6607,VALID,0,VALID,23.8768,VALID,9,VALID,0.878516,
2012-02-15, 02:27:04,VALID,998.63,VALID,0,VALID,94.6836,VALID,0,VALID,23.8963,VALID,9,VALID,0.686719,
2012-02-15, 02:28:04,VALID,998.604,VALID,0,VALID,94.6912,VALID,0,VALID,23.8555,VALID,9,VALID,0.660937,
2012-02-15, 02:29:04,VALID,998.592,VALID,0,VALID,94.6912,VALID,0,VALID,23.8555,VALID,9,VALID,0.4,
2012-02-15, 02:30:04,VALID,998.556,VALID,0,VALID,94.676,VALID,0,VALID,23.8555,VALID,9,VALID,0.575781,
2012-02-15, 02:31:04,VALID,998.546,VALID,0,VALID,94.6988,VALID,0,VALID,23.836,VALID,9,VALID,0.657812,
2012-02-15, 02:32:04,VALID,998.531,VALID,0,VALID,94.676,VALID,0,VALID,23.836,VALID,9,VALID,0.617578,
2012-02-15, 02:33:04,VALID,998.532,VALID,0,VALID,94.6836,VALID,0,VALID,23.8165,VALID,9,VALID,0.607422,
2012-02-15, 02:34:04,VALID,998.507,VALID,0,VALID,94.6836,VALID,0,VALID,23.7775,VALID,9,VALID,0.680078,
2012-02-15, 02:35:04,VALID,998.495,VALID,0,VALID,94.6912,VALID,0,VALID,23.7775,VALID,9,VALID,0.576172,
2012-02-15, 02:36:04,VALID,998.487,VALID,0,VALID,94.6988,VALID,0,VALID,23.7579,VALID,9,VALID,0.485938,
2012-02-15, 02:37:04,VALID,998.447,VALID,0,VALID,94.6912,VALID,0,VALID,23.7579,VALID,9,VALID,0.290234,
2012-02-15, 02:38:04,VALID,998.436,VALID,0,VALID,94.6836,VALID,0,VALID,23.7579,VALID,9,VALID,0.128906,
2012-02-15, 02:39:04,VALID,998.431,VALID,0.5,VALID,94.6988,VALID,0,VALID,23.7384,VALID,9,VALID,0,
2012-02-15, 02:40:04,VALID,998.398,VALID,0,VALID,94.6988,VALID,0,VALID,23.7597,VALID,9,VALID,0,
2012-02-15, 02:41:04,VALID,998.353,VALID,0,VALID,94.737,VALID,0,VALID,23.7384,VALID,9,VALID,0,
2012-02-15, 02:42:04,VALID,998.348,VALID,0,VALID,94.7141,VALID,0,VALID,23.7189,VALID,9,VALID,0.269531,
2012-02-15, 02:43:04,VALID,998.345,VALID,0,VALID,94.7294,VALID,0.104696,VALID,23.7189,VALID,9,VALID,0.324219,
2012-02-15, 02:44:04,VALID,998.319,VALID,0,VALID,94.7294,VALID,0,VALID,23.7189,VALID,9,VALID,0.562109,
2012-02-15, 02:45:04,VALID,998.27,VALID,0,VALID,94.737,VALID,0,VALID,23.6994,VALID,9,VALID,0.398438,
2012-02-15, 02:46:04,VALID,998.231,VALID,0,VALID,94.7294,VALID,0,VALID,23.6799,VALID,9,VALID,0.216016,
2012-02-15, 02:47:04,VALID,998.239,VALID,0,VALID,94.7217,VALID,0,VALID,23.6799,VALID,9,VALID,0.343359,
2012-02-15, 02:48:04,VALID,998.206,VALID,0,VALID,94.7523,VALID,0.104696,VALID,23.6604,VALID,9,VALID,0.324609,
2012-02-15, 02:49:04,VALID,998.197,VALID,0,VALID,94.737,VALID,0,VALID,23.6799,VALID,9,VALID,0.536328,
2012-02-15, 02:50:04,VALID,998.171,VALID,0,VALID,94.7599,VALID,0,VALID,23.6799,VALID,11,VALID,0.521484,
2012-02-15, 02:51:04,VALID,998.186,VALID,0,VALID,94.7751,VALID,0,VALID,23.6799,VALID,122,VALID,0.347656,
2012-02-15, 02:52:04,VALID,998.139,VALID,0,VALID,94.7751,VALID,0,VALID,23.6799,VALID,136,VALID,0.580078,
2012-02-15, 02:53:04,VALID,998.165,VALID,0,VALID,94.7828,VALID,0,VALID,23.6994,VALID,136,VALID,0.513672,
2012-02-15, 02:54:04,VALID,998.155,VALID,0.5,VALID,94.7828,VALID,0,VALID,23.6781,VALID,136,VALID,0.459766,
2012-02-15, 02:55:04,VALID,998.112,VALID,0,VALID,94.7828,VALID,0,VALID,23.7207,VALID,140,VALID,0.680078,
2012-02-15, 02:56:04,VALID,998.143,VALID,0,VALID,94.7751,VALID,0,VALID,23.7189,VALID,156,VALID,0.813281,
2012-02-15, 02:57:04,VALID,998.141,VALID,0,VALID,94.7904,VALID,0,VALID,23.7384,VALID,156,VALID,0.765234,
2012-02-15, 02:58:04,VALID,998.109,VALID,0,VALID,94.7904,VALID,0.104696,VALID,23.7579,VALID,156,VALID,0.797656,
2012-02-15, 02:59:04,VALID,998.086,VALID,0,VALID,94.7904,VALID,0,VALID,23.7775,VALID,156,VALID,0.782812,
2012-02-15, 03:00:04,VALID,998.067,VALID,0,VALID,94.8133,VALID,0,VALID,23.7775,VALID,162,VALID,0.931641,
2012-02-15, 03:01:04,VALID,998.077,VALID,0,VALID,94.798,VALID,0,VALID,23.8165,VALID,163,VALID,0.924609,
2012-02-15, 03:02:04,VALID,998.093,VALID,0,VALID,94.8057,VALID,0,VALID,23.8378,VALID,163,VALID,0.866797,
2012-02-15, 03:03:04,VALID,998.088,VALID,0,VALID,94.8362,VALID,0,VALID,23.8573,VALID,163,VALID,0.873438,
2012-02-15, 03:04:04,VALID,998.097,VALID,0,VALID,94.8209,VALID,0,VALID,23.8555,VALID,163,VALID,0.722266,
2012-02-15, 03:05:04,VALID,998.068,VALID,0,VALID,94.8133,VALID,0,VALID,23.875,VALID,163,VALID,0.660156,
2012-02-15, 03:06:04,VALID,998.081,VALID,0,VALID,94.8438,VALID,0,VALID,23.875,VALID,156,VALID,0.642187,
2012-02-15, 03:07:04,VALID,998.098,VALID,0,VALID,94.8133,VALID,0,VALID,23.8945,VALID,151,VALID,0.482031,
2012-02-15, 03:08:04,VALID,998.097,VALID,0,VALID,94.8362,VALID,0,VALID,23.8945,VALID,151,VALID,0.605469,
2012-02-15, 03:09:04,VALID,998.083,VALID,0,VALID,94.8438,VALID,0,VALID,23.8945,VALID,151,VALID,0.3375,
2012-02-15, 03:10:04,VALID,998.119,VALID,0,VALID,94.8285,VALID,0,VALID,23.8945,VALID,151,VALID,0,
2012-02-15, 03:11:04,VALID,998.095,VALID,0,VALID,94.8362,VALID,0,VALID,23.8945,VALID,151,VALID,0,
2012-02-15, 03:12:04,VALID,998.122,VALID,0,VALID,94.8362,VALID,0,VALID,23.8945,VALID,151,VALID,0,
2012-02-15, 03:13:04,VALID,998.102,VALID,0.5,VALID,94.8362,VALID,0,VALID,23.8945,VALID,151,VALID,0,
2012-02-15, 03:14:04,VALID,998.105,VALID,0,VALID,94.8514,VALID,0.104696,VALID,23.914,VALID,151,VALID,0,
2012-02-15, 03:15:04,VALID,998.096,VALID,0,VALID,94.8514,VALID,0,VALID,23.914,VALID,151,VALID,0,
2012-02-15, 03:16:04,VALID,998.078,VALID,0,VALID,94.8514,VALID,0,VALID,23.914,VALID,151,VALID,0,
2012-02-15, 03:17:04,VALID,998.071,VALID,0,VALID,94.8514,VALID,0,VALID,23.914,VALID,151,VALID,0,
2012-02-15, 03:18:04,VALID,998.077,VALID,0,VALID,94.8362,VALID,0,VALID,23.914,VALID,151,VALID,0,
2012-02-15, 03:19:04,VALID,998.074,VALID,0,VALID,94.8438,VALID,0,VALID,23.8945,VALID,151,VALID,0,
2012-02-15, 03:20:04,VALID,998.085,VALID,0,VALID,94.8514,VALID,0,VALID,23.8945,VALID,151,VALID,0.801953,
2012-02-15, 03:21:04,VALID,998.078,VALID,0,VALID,94.8591,VALID,0,VALID,23.914,VALID,151,VALID,0.507031,
2012-02-15, 03:22:04,VALID,998.102,VALID,0,VALID,94.8591,VALID,0,VALID,23.8945,VALID,151,VALID,0.501562,
2012-02-15, 03:23:04,VALID,998.116,VALID,0,VALID,94.8438,VALID,0,VALID,23.8963,VALID,10,VALID,0.562109,
2012-02-15, 03:24:04,VALID,998.097,VALID,0,VALID,94.8591,VALID,0,VALID,23.8768,VALID,10,VALID,0.398047,
2012-02-15, 03:25:04,VALID,998.132,VALID,0,VALID,94.8438,VALID,0,VALID,23.8555,VALID,10,VALID,0.374219,
2012-02-15, 03:26:04,VALID,998.115,VALID,0,VALID,94.8667,VALID,0,VALID,23.836,VALID,10,VALID,0.551953,
2012-02-15, 03:27:04,VALID,998.129,VALID,0,VALID,94.8591,VALID,0,VALID,23.836,VALID,10,VALID,0.332812,
2012-02-15, 03:28:04,VALID,998.117,VALID,0,VALID,94.8667,VALID,0,VALID,23.836,VALID,10,VALID,0.351563,
2012-02-15, 03:29:04,VALID,998.118,VALID,0,VALID,94.8514,VALID,0,VALID,23.8378,VALID,10,VALID,0.438281,
2012-02-15, 03:30:04,VALID,998.101,VALID,0,VALID,94.8743,VALID,0,VALID,23.8165,VALID,10,VALID,0.232422,
2012-02-15, 03:31:04,VALID,998.078,VALID,0,VALID,94.8514,VALID,0,VALID,23.8183,VALID,10,VALID,0,
2012-02-15, 03:32:04,VALID,998.095,VALID,0,VALID,94.8591,VALID,0,VALID,23.7988,VALID,10,VALID,0.233984,
2012-02-15, 03:33:04,VALID,998.11,VALID,0,VALID,94.8591,VALID,0,VALID,23.7775,VALID,10,VALID,0,
2012-02-15, 03:34:04,VALID,998.096,VALID,0,VALID,94.8743,VALID,0.104696,VALID,23.7775,VALID,10,VALID,0,
2012-02-15, 03:35:04,VALID,998.103,VALID,0,VALID,94.8591,VALID,0,VALID,23.7384,VALID,10,VALID,0,
2012-02-15, 03:36:04,VALID,998.059,VALID,0,VALID,94.882,VALID,0,VALID,23.7597,VALID,10,VALID,0,
2012-02-15, 03:37:04,VALID,998.022,VALID,0,VALID,94.882,VALID,0,VALID,23.7189,VALID,10,VALID,0,
2012-02-15, 03:38:04,VALID,998.037,VALID,0,VALID,94.8896,VALID,0,VALID,23.7384,VALID,10,VALID,0,
2012-02-15, 03:39:04,VALID,998.027,VALID,0,VALID,94.882,VALID,0,VALID,23.7189,VALID,10,VALID,0,
2012-02-15, 03:40:04,VALID,998.026,VALID,0,VALID,94.8896,VALID,0,VALID,23.7189,VALID,10,VALID,0,
2012-02-15, 03:41:04,VALID,998.003,VALID,0,VALID,94.8896,VALID,0,VALID,23.7189,VALID,10,VALID,0,
2012-02-15, 03:42:04,VALID,998.033,VALID,0,VALID,94.8743,VALID,0,VALID,23.7189,VALID,10,VALID,0,
2012-02-15, 03:43:04,VALID,998.008,VALID,0,VALID,94.882,VALID,0,VALID,23.7189,VALID,10,VALID,0,
2012-02-15, 03:44:04,VALID,998.036,VALID,0,VALID,94.8743,VALID,0,VALID,23.6994,VALID,10,VALID,0,
2012-02-15, 03:45:04,VALID,998.037,VALID,0,VALID,94.8896,VALID,0.104696,VALID,23.6994,VALID,10,VALID,0,
2012-02-15, 03:46:04,VALID,998.023,VALID,0,VALID,94.882,VALID,0,VALID,23.7384,VALID,10,VALID,0,
2012-02-15, 03:47:04,VALID,997.994,VALID,0,VALID,94.8667,VALID,0,VALID,23.7384,VALID,10,VALID,0,
2012-02-15, 03:48:04,VALID,998.023,VALID,0,VALID,94.8972,VALID,0,VALID,23.7384,VALID,10,VALID,0,
2012-02-15, 03:49:04,VALID,997.997,VALID,0,VALID,94.8972,VALID,0,VALID,23.7402,VALID,15,VALID,0,
2012-02-15, 03:50:04,VALID,997.976,VALID,0,VALID,94.882,VALID,0,VALID,23.7207,VALID,15,VALID,0,
2012-02-15, 03:51:04,VALID,997.991,VALID,0,VALID,94.882,VALID,0,VALID,23.7402,VALID,15,VALID,0,
2012-02-15, 03:52:04,VALID,997.988,VALID,0,VALID,94.9201,VALID,0,VALID,23.7207,VALID,30,VALID,0,